CDT,Max TemperatureF,Mean TemperatureF,Min TemperatureF,Max Dew PointF,MeanDew PointF,Min DewpointF,Max Humidity, Mean Humidity, Min Humidity, Max Sea Level PressureIn, Mean Sea Level PressureIn, Min Sea Level PressureIn, Max VisibilityMiles, Mean VisibilityMiles, Min VisibilityMiles, Max Wind SpeedMPH, Mean Wind SpeedMPH, Max Gust SpeedMPH,PrecipitationIn, CloudCover, Events, WindDirDegrees
2012-9-1,93,82,71,73,72,68,94,73,49,30.07,30.00,29.92,10,10,3,24,14,29,0.31,5,Rain-Thunderstorm,189
2012-9-2,95,84,73,75,73,70,89,72,49,29.96,29.90,29.82,10,10,10,18,12,28,0.00,3,,217
2012-9-3,96,84,71,75,72,68,100,68,39,29.93,29.88,29.82,10,10,2,14,4,20,0.00,0,,283
2012-9-4,95,84,73,73,71,66,94,68,39,29.92,29.87,29.84,10,10,7,13,4,17,0.00,0,,4
2012-9-5,100,86,71,73,69,61,94,62,29,29.88,29.84,29.77,10,9,5,13,3,17,0.00,0,,217
2012-9-6,98,86,73,75,69,61,84,61,30,29.96,29.90,29.84,10,10,7,21,7,26,0.00,2,Rain-Thunderstorm,144
2012-9-7,98,84,69,73,69,66,94,68,37,30.02,29.87,29.74,10,10,4,17,8,22,0.36,2,Rain-Thunderstorm,166
2012-9-8,78,69,60,70,60,50,94,72,39,30.03,29.95,29.84,10,10,5,23,10,30,0.36,4,Rain-Thunderstorm,342
2012-9-9,82,68,55,59,53,46,94,61,28,30.12,30.05,30.01,10,10,10,10,3,,0.00,0,,304
2012-9-10,82,68,55,57,54,46,94,63,30,30.18,30.12,30.08,10,10,10,9,5,9,0.00,0,,13
2012-9-11,87,70,53,61,55,50,100,61,29,30.20,30.14,30.09,10,10,10,9,3,9,0.00,0,,131
2012-9-12,87,78,68,64,58,52,78,57,29,30.22,30.16,30.11,10,10,7,12,6,17,0.00,4,,129
2012-9-13,89,78,68,66,61,55,83,59,31,30.22,30.17,30.11,10,10,7,14,7,18,0.00,2,,143
2012-9-14,87,76,64,68,64,57,94,68,35,30.21,30.19,30.15,10,10,7,13,3,,0.00,1,,65
2012-9-15,82,74,66,66,65,61,94,75,51,30.21,30.16,30.10,10,9,5,13,5,,0.00,1,,7
2012-9-16,82,75,68,70,67,64,94,78,54,30.10,30.04,29.98,10,8,2,8,2,,0.06,3,Rain,333
2012-9-17,71,70,68,70,68,64,100,93,88,30.00,29.87,29.79,10,6,2,12,5,,1.79,8,Rain,24
2012-9-18,71,62,53,68,55,43,100,70,35,30.09,29.94,29.79,10,9,3,23,8,30,0.01,2,,343
2012-9-19,75,62,48,52,46,36,100,63,24,30.19,30.12,30.08,10,10,2,8,1,,0.00,0,,29
2012-9-20,80,64,48,55,50,46,94,63,30,30.11,30.06,30.00,10,10,7,13,4,20,0.00,0,,195
2012-9-21,84,70,55,57,53,50,88,62,30,30.13,30.00,29.91,10,10,10,20,8,25,0.00,0,Thunderstorm,178
2012-9-22,86,72,59,61,51,41,88,57,20,30.14,30.06,29.95,10,10,4,10,4,,0.00,0,,12
2012-9-23,75,63,51,54,43,34,82,55,25,30.28,30.22,30.15,10,10,7,13,7,20,0.00,0,,18
2012-9-24,77,62,48,54,46,43,82,61,33,30.28,30.18,30.07,10,10,7,12,5,,0.00,1,Rain-Thunderstorm,110
2012-9-25,89,74,60,68,62,52,78,64,38,30.09,30.04,29.99,10,10,5,18,9,21,0.00,0,,187
2012-9-26,87,78,66,68,63,59,83,66,43,30.12,30.07,30.03,10,10,10,15,10,20,0.00,1,,178
2012-9-27,89,74,60,64,61,55,94,65,31,30.16,30.10,30.03,10,10,5,13,5,20,0.00,1,,186
2012-9-28,86,75,64,68,64,61,94,75,45,30.11,30.06,30.01,10,8,3,14,3,17,0.00,0,,355
2012-9-29,78,71,64,66,62,55,94,73,54,30.05,30.00,29.93,10,8,2,12,7,,0.00,2,,23
2012-9-30,64,62,59,61,57,54,94,83,73,29.94,29.84,29.71,10,9,3,22,8,28,0.54,6,Rain,38